Flag for Germany Weather past 2 weeks in Kaufbeuren, Bavaria, Germany

Now
61 °F

Cool.


Feels Like: 61 °F
Forecast: 53 / 82 °F
Wind: 5 mph from Southwest

Location: Altenstadt Airport

Current Time: Aug 2, 2015 at 10:37:16 AM

Latest Report: Aug 2, 2015 at 9:20 AM


Visibility: N/A

Pressure: 30.15 "Hg (27.78 "Hg at 693m altitude)

Humidity: 94%

Dew point: 59 °F

Location of KaufbeurenLocation

Historic Weather in Kaufbeuren — Graph

°F

Kaufbeuren temperature yesterday

Maximum temperature yesterday: 66 °F (at 4:20 PM)
Minimum temperature yesterday: 54 °F (at 4:20 AM)
Average temperature yesterday: 60 °F

Past Weeks' High & Low Weather Summary

 TemperatureHumidityPressure
High88 °F (Jul 21, 7:20 PM)100% (Jul 27, 3:20 AM)30.21 "Hg (Jul 27, 3:20 AM)
Low45 °F (Jul 31, 6:20 AM)38% (Jul 21, 7:20 PM)29.77 "Hg (Jul 25, 3:20 AM)
Average65 °F71%30.00 "Hg
* Reported Jul 18 9:20 AM — Aug 2 9:20 AM, Kaufbeuren, Weather by CustomWeather, © 2015

Note: Actual official high and low records may vary slightly from our data, if they occured in-between our weather recording intervals... More about our weather records

Advertising

Kaufbeuren weather history for previous 24 hours

 ConditionsComfort  
Time TempWeatherWind HumidityBarometerVisibility
9:20 AM
Sun, Aug 2
61 °FCool.5 mph94%30.15 "HgN/A
8:20 AM59 °FCool.5 mph94%30.15 "HgN/A
7:20 AM57 °FCool.3 mph100%30.15 "HgN/A
6:20 AM57 °FCool.3 mph100%30.12 "HgN/A
5:20 AM57 °FCool.2 mph100%30.12 "HgN/A
4:20 AM57 °FCool.3 mph100%30.12 "HgN/A
3:20 AM59 °FCool.3 mph94%30.09 "HgN/A
2:20 AM57 °FCool.5 mph100%30.09 "HgN/A
1:20 AM57 °FCool.1 mph100%30.09 "HgN/A
12:20 AM57 °FCool.3 mph100%30.09 "HgN/A
11:20 PM
Sat, Aug 1
59 °FCool.5 mph94%30.09 "HgN/A
10:20 PM61 °FCool.3 mph83%30.07 "HgN/A
9:20 PM61 °FCool.2 mph77%30.07 "HgN/A
8:20 PM63 °FMild.2 mph77%30.04 "HgN/A
7:20 PM63 °FMild.6 mph77%30.04 "HgN/A
6:20 PM66 °FMild.7 mph64%30.04 "HgN/A
5:20 PM66 °FMild.5 mph64%30.04 "HgN/A
4:20 PM66 °FMild.3 mph64%30.04 "HgN/A
3:20 PM64 °FMild.5 mph64%30.04 "HgN/A
2:20 PM63 °FMild.6 mph73%30.04 "HgN/A
1:20 PM61 °FCool.6 mph83%30.04 "HgN/A
12:20 PM59 °FCool.9 mph82%30.07 "HgN/A
11:20 AM61 °FCool.17 mph72%30.04 "HgN/A
10:20 AM63 °FMild.20 mph64%30.04 "HgN/A
Weather by CustomWeather, © 2015

See weather overviewHow to use our weather pages